Content
SEND FEEDBACK

Daily
Averages
Monthly
Summary
United States of America

BERKELEY, MISSOURI


Home > North America > United States > Missouri
Elevation: 564 feet     Latitude: 38 45N     Longitude: 090 22W

WEATHER
 
SELECT A DAY
Number of Records: 203,371;   Date Range: 1/1/95 - 7/23/14
 
SHARE

PRINT THIS DATA

[ ← Previous Day ]
WEATHER ALMANAC - MAY 3, 2013
[ Next Day → ]
[ °C ]   °F
Weather ElementAverageHighLow
Temperature43.3 °F45 °F (12:51 am)42.1 °F (6:51 am)
Dewpoint39.9 °F42.8 °F (12:40 am)37.9 °F (7:51 am)
Humidity87.8 %93 % (12:40 am)81 % (2:05 am)
Barometer29.95 in30.10 in (12:40 am)29.82 in (8:17 pm)
Wind Speed9.2 mph13.8 mph (2:51 pm)
Wind Gust18.4 mph (9:51 am)
Weather ElementAverage
Visibility4.7 mi
Wind DirectionWNW (300.6 °)

Weather ElementTotal
Precipitation4.19 in
Heating Degree Days21.5 (Base 65)
Averaged from 65 records on May 3, 2013
WEATHER CONDITIONS BREAKOUT
WIND DIRECTION BREAKOUT
WEATHER BY HOUR - MAY 3, 2013
[ °C ]   °F
Local TimeTemperatureDewpointHumidityBarometerVisibilityWind DirectionWind SpeedGust SpeedPrecipitationEventsConditions
12:40 AM44.6 °F42.8 °F93 %30.10 in7.0 miNW (320°)8.1 mph0.04 inRainLight Rain
12:51 AM45.0 °F41.0 °F86 %30.09 in7.0 miNW (320°)10.4 mph0.05 inRainLight Rain
1:06 AM44.6 °F42.8 °F93 %30.08 in6.0 miNNW (330°)9.2 mph0.03 inRainLight Rain
1:42 AM44.6 °F41.0 °F87 %30.07 in4.0 miNW (320°)10.4 mph0.08 inRainRain
1:51 AM44.1 °F41.0 °F89 %30.06 in5.0 miNW (320°)10.4 mph0.12 inRainRain
2:05 AM44.6 °F39.2 °F81 %30.06 in5.0 miNNW (330°)6.9 mph0.03 inRainLight Rain
2:23 AM44.6 °F41.0 °F87 %30.06 in5.0 miNW (320°)6.9 mph0.07 inRainLight Rain
2:35 AM44.6 °F41.0 °F87 %30.05 in5.0 miWNW (300°)6.9 mph0.11 inRainRain
2:51 AM44.1 °F41.0 °F89 %30.03 in6.0 miNW (320°)6.9 mph0.14 inRainLight Rain
3:44 AM42.8 °F41.0 °F93 %30.03 in6.0 miWNW (300°)6.9 mph0.07 inRainLight Rain
3:48 AM42.8 °F39.2 °F87 %30.03 in6.0 miWNW (300°)8.1 mph0.08 inRainRain
3:51 AM43.0 °F39.9 °F89 %30.03 in6.0 miWNW (300°)8.1 mph0.09 inRainRain
4:24 AM42.8 °F39.2 °F87 %30.03 in6.0 miWNW (300°)9.2 mph0.04 inRainLight Rain
4:32 AM42.8 °F39.2 °F87 %30.02 in6.0 miNW (310°)9.2 mph0.04 inRainLight Rain
4:51 AM43.0 °F39.9 °F89 %30.02 in7.0 miWNW (300°)8.1 mph0.07 inRainLight Rain
5:51 AM43.0 °F39.9 °F89 %30.01 in8.0 miWNW (300°)8.1 mph0.01 inRainLight Rain
6:11 AM42.8 °F39.2 °F87 %30.01 in3.0 miWNW (300°)10.4 mph0.00 inRainLight Rain
6:22 AM42.8 °F39.2 °F87 %30.00 in4.0 miNW (310°)10.4 mph0.01 inRainLight Rain
6:38 AM42.8 °F39.2 °F87 %30.00 in3.0 miWNW (300°)9.2 mph0.01 inRainLight Rain
6:51 AM42.1 °F39.0 °F89 %30.00 in4.0 miNW (310°)9.2 mph0.03 inRainLight Rain
7:04 AM42.8 °F39.2 °F87 %29.99 in6.0 miWNW (300°)10.4 mph0.01 inRainLight Rain
7:47 AM42.8 °F39.2 °F87 %29.97 in3.0 miNW (320°)11.5 mph0.05 inRainLight Rain
7:51 AM42.1 °F37.9 °F85 %29.98 in4.0 miNW (320°)10.4 mph0.06 inRainLight Rain
8:47 AM42.8 °F39.2 °F87 %29.98 in3.0 miWNW (290°)11.5 mph0.12 inRainLight Rain
8:51 AM42.1 °F39.0 °F89 %30.00 in3.0 miWNW (290°)10.4 mph0.14 inRainLight Rain
9:06 AM42.8 °F39.2 °F87 %29.97 in4.0 miWNW (300°)8.1 mph0.05 inRainLight Rain
9:25 AM42.8 °F39.2 °F87 %29.97 in3.0 miWNW (300°)10.4 mph0.08 inRainLight Rain
9:40 AM42.8 °F39.2 °F87 %29.97 in4.0 miNW (310°)10.4 mph0.09 inRainLight Rain
9:51 AM42.1 °F39.0 °F89 %29.98 in3.0 miWNW (300°)11.5 mph18.4 mph0.09 inRainLight Rain
10:18 AM42.8 °F39.2 °F87 %29.96 in4.0 miNW (320°)11.5 mph0.02 inRainLight Rain
10:24 AM42.8 °F39.2 °F87 %29.96 in6.0 miWNW (300°)11.5 mph0.02 inRainLight Rain
10:47 AM42.8 °F39.2 °F87 %29.96 in4.0 miWNW (300°)9.2 mph0.03 inRainLight Rain
10:51 AM42.1 °F39.0 °F89 %29.97 in3.0 miNW (310°)9.2 mph0.06 inRainLight Rain
11:09 AM42.8 °F39.2 °F87 %29.95 in4.0 miNW (310°)10.4 mph0.05 inRainLight Rain
11:24 AM42.8 °F39.2 °F87 %29.95 in4.0 miNW (310°)9.2 mph0.06 inRainLight Rain
11:38 AM42.8 °F39.2 °F87 %29.93 in2.5 miNW (310°)10.4 mph0.11 inRainLight Rain
11:51 AM42.1 °F39.0 °F89 %29.95 in4.0 miNW (310°)6.9 mph0.15 inRainLight Rain
12:03 PM42.8 °F39.2 °F87 %29.94 in5.0 miWNW (300°)5.8 mph0.02 inRainLight Rain
12:44 PM42.8 °F39.2 °F87 %29.91 in7.0 miNW (320°)9.2 mph0.03 inRainLight Rain
12:51 PM43.0 °F39.9 °F89 %29.92 in7.0 miNNW (330°)6.9 mph0.03 inRainLight Rain
1:19 PM44.6 °F41.0 °F87 %29.90 in4.0 miNW (310°)6.9 mph0.02 inRainLight Rain
1:51 PM44.1 °F41.0 °F89 %29.91 in4.0 miNW (310°)8.1 mph0.07 inRainLight Rain
2:16 PM44.6 °F41.0 °F87 %29.89 in5.0 miNW (310°)8.1 mph0.05 inRainLight Rain
2:51 PM44.1 °F41.0 °F89 %29.91 in6.0 miWest (280°)13.8 mph0.09 inRainLight Rain
3:10 PM44.6 °F41.0 °F87 %29.88 in4.0 miWest (280°)13.8 mph0.03 inRainLight Rain
3:37 PM42.8 °F39.2 °F87 %29.86 in5.0 miWNW (300°)9.2 mph0.07 inRainLight Rain
3:51 PM44.1 °F41.0 °F89 %29.87 in5.0 miWNW (300°)6.9 mph0.08 inRainLight Rain
4:02 PM44.6 °F41.0 °F87 %29.86 in3.0 miWNW (300°)8.1 mph0.03 inRainRain
4:23 PM44.6 °F41.0 °F87 %29.85 in5.0 miNW (310°)11.5 mph0.10 inRainLight Rain
4:45 PM44.6 °F41.0 °F87 %29.84 in4.0 miNW (310°)9.2 mph0.13 inRainRain
4:51 PM44.1 °F41.0 °F89 %29.86 in4.0 miNW (310°)5.8 mph0.16 inRainRain
5:39 PM44.6 °F41.0 °F87 %29.84 in4.0 miNW (310°)8.1 mph0.10 inRainLight Rain
5:51 PM44.1 °F41.0 °F89 %29.85 in5.0 miWNW (290°)10.4 mph0.11 inRainLight Rain
6:14 PM44.6 °F41.0 °F87 %29.85 in4.0 miWest (270°)12.7 mph0.01 inRainLight Rain
6:26 PM42.8 °F39.2 °F87 %29.84 in3.0 miWest (270°)11.5 mph0.04 inRainLight Rain
6:51 PM43.0 °F39.9 °F89 %29.85 in3.0 miWest (280°)12.7 mph0.24 inRainHeavy Rain
7:05 PM42.8 °F39.2 °F87 %29.84 in5.0 miWNW (290°)6.9 mph0.06 inRainLight Rain
7:51 PM43.0 °F39.9 °F89 %29.86 in4.0 miWNW (300°)8.1 mph0.09 inRainLight Rain
8:17 PM42.8 °F39.2 °F87 %29.82 in6.0 miWNW (300°)6.9 mph0.05 inRainLight Rain
8:38 PM42.8 °F39.2 °F87 %29.82 in5.0 miWNW (290°)11.5 mph0.08 inRainLight Rain
8:51 PM43.0 °F39.9 °F89 %29.84 in5.0 miWNW (300°)6.9 mph0.09 inRainLight Rain
9:40 PM42.8 °F39.2 °F87 %29.84 in5.0 miWSW (250°)9.2 mph0.02 inRainLight Rain
9:51 PM43.0 °F39.9 °F89 %29.87 in5.0 miWSW (240°)9.2 mph0.03 inRainLight Rain
10:51 PM43.0 °F39.9 °F89 %29.86 in6.0 miWSW (240°)9.2 mph0.04 inRainLight Rain
11:51 PM42.1 °F39.0 °F89 %29.87 in7.0 miSW (230°)6.9 mph0.01 inOvercast
Hourly data recorded from KSTL, located miles away from Berkeley, Missouri







STORIES FROM OUR PARTNERS